GW4214 Weather Reports


Display with metric or nautical units.
time (UTC)temp
F
wind
direction
speed
MPH
gust
MPH
rain 1hr
in
rain 24hr
in
rain mn
in
humidity
%
barometer
mb
20260902034025 63 185 1.0 2.0 0.00 0.00 0.00 78 1014.9
20260902033525 63 199 0.0 0.0 0.00 0.00 0.00 78 1014.5
20260902033020 63 173 3.0 5.0 0.00 0.00 0.00 78 1014.5
20260902032514 63 149 5.0 6.0 0.00 0.00 0.00 78 1014.5
20260902032008 63 202 2.0 3.0 0.00 0.00 0.00 78 1014.9
20260902031503 63 174 2.0 2.0 0.00 0.00 0.00 78 1014.5
20260902030959 63 198 2.0 3.0 0.00 0.00 0.00 77 1014.9
20260902030454 63 218 3.0 5.0 0.00 0.00 0.00 77 1014.9
20260902025952 63 194 2.0 2.0 0.00 0.00 0.00 77 1014.5
20260902025448 63 208 1.0 2.0 0.00 0.00 0.00 77 1014.2
20260902024949 64 151 0.0 0.0 0.00 0.00 0.00 77 1014.9
20260902024444 64 192 0.0 0.0 0.00 0.00 0.00 76 1014.5
20260902023944 64 213 1.0 1.0 0.00 0.00 0.00 76 1014.5
20260902023440 64 214 1.0 1.0 0.00 0.00 0.00 76 1014.5
20260902022939 64 222 2.0 2.0 0.00 0.00 0.00 75 1014.5
20260902022434 64 211 0.0 1.0 0.00 0.00 0.00 75 1014.5
20260902021930 64 193 2.0 5.0 0.00 0.00 0.00 75 1014.5
20260902021425 64 231 3.0 3.0 0.00 0.00 0.00 75 1014.5
20260902020921 64 216 1.0 1.0 0.00 0.00 0.00 75 1014.2
20260902020417 64 179 1.0 2.0 0.00 0.00 0.00 75 1014.9
20260902015912 64 201 0.0 0.0 0.00 0.00 0.00 75 1014.5
20260902015407 64 206 0.0 0.0 0.00 0.00 0.00 76 1014.5
20260902014902 64 213 0.0 0.0 0.00 0.00 0.00 75 1014.5
20260902014359 64 195 1.0 1.0 0.00 0.00 0.00 76 1014.5
20260902013858 64 206 1.0 1.0 0.00 0.00 0.00 76 1014.2
20260902013354 64 206 0.0 0.0 0.00 0.00 0.00 77 1014.2
20260902012849 64 219 5.0 6.0 0.00 0.00 0.00 77 1014.5
20260902012345 63 229 4.0 5.0 0.00 0.00 0.00 77 1014.5
20260902011840 63 195 3.0 3.0 0.00 0.00 0.00 77 1014.5
20260902011335 64 192 2.0 2.0 0.00 0.00 0.00 77 1014.5
20260902010834 64 170 2.0 3.0 0.00 0.00 0.00 77 1014.5
20260902010329 64 231 6.0 8.0 0.00 0.00 0.00 76 1014.5
20260902005828 64 223 3.0 3.0 0.00 0.00 0.00 77 1014.5
20260902005323 64 201 3.0 5.0 0.00 0.00 0.00 76 1014.2
20260902004819 65 192 2.0 2.0 0.00 0.00 0.00 75 1014.2
20260902004313 65 176 3.0 3.0 0.00 0.00 0.00 75 1014.5
20260902003808 65 197 3.0 6.0 0.00 0.00 0.00 74 1014.5
20260902003303 65 219 3.0 5.0 0.00 0.00 0.00 74 1014.2
20260902002759 66 177 2.0 3.0 0.00 0.00 0.00 73 1014.2
20260902002258 66 277 3.0 3.0 0.00 0.00 0.00 73 1014.2
20260902001754 66 285 6.0 14.0 0.00 0.00 0.00 71 1014.2
20260902001250 67 233 4.0 6.0 0.00 0.00 0.00 70 1014.2
20260902000749 67 213 0.0 0.0 0.00 0.00 0.00 69 1013.8
20260902000244 67 237 0.0 0.0 0.00 0.00 0.00 68 1013.8
20260901235739 67 211 0.0 0.0 0.00 0.00 0.00 68 1013.8
20260901235234 67 178 0.0 0.0 0.00 0.00 0.00 68 1013.8
20260901234727 68 216 0.0 0.0 0.00 0.00 0.00 68 1014.2
20260901234227 67 198 0.0 0.0 0.00 0.00 0.00 67 1014.2
20260901233722 67 232 4.0 6.0 0.00 0.00 0.00 67 1014.2
20260901233219 67 197 0.0 1.0 0.00 0.00 0.00 68 1013.8
20260901232718 67 204 0.0 0.0 0.00 0.00 0.00 68 1013.8
20260901232214 67 212 2.0 3.0 0.00 0.00 0.00 68 1014.2
20260901231710 68 263 4.0 7.0 0.00 0.00 0.00 68 1014.2
20260901231206 68 204 0.0 0.0 0.00 0.00 0.00 68 1014.2
20260901230701 67 213 0.0 1.0 0.00 0.00 0.00 69 1014.2
20260901230201 67 211 1.0 2.0 0.00 0.00 0.00 70 1014.2
20260901225656 67 225 4.0 7.0 0.00 0.00 0.00 69 1014.2
20260901225151 67 227 1.0 2.0 0.00 0.00 0.00 69 1014.2
20260901224647 67 171 3.0 5.0 0.00 0.00 0.00 69 1014.2
20260901224143 67 192 3.0 5.0 0.00 0.00 0.00 68 1014.2
20260901223638 67 200 3.0 5.0 0.00 0.00 0.00 68 1014.2
20260901223133 67 192 1.0 2.0 0.00 0.00 0.00 69 1014.2
20260901222629 67 179 0.0 0.0 0.00 0.00 0.00 69 1014.2
20260901222125 67 190 0.0 2.0 0.00 0.00 0.00 69 1014.2
20260901221621 67 185 0.0 0.0 0.00 0.00 0.00 69 1014.2
20260901221117 67 197 2.0 3.0 0.00 0.00 0.00 69 1014.2
20260901220616 67 196 0.0 0.0 0.00 0.00 0.00 69 1014.2
20260901220115 67 201 0.0 0.0 0.00 0.00 0.00 68 1014.2
20260901215613 68 161 6.0 7.0 0.00 0.00 0.00 68 1014.2
20260901215108 67 220 0.0 0.0 0.00 0.00 0.00 68 1013.8
20260901214606 67 229 3.0 3.0 0.00 0.00 0.00 69 1014.2
20260901214101 67 190 0.0 0.0 0.00 0.00 0.00 69 1014.2
20260901213600 67 188 0.0 0.0 0.00 0.00 0.00 69 1013.8
20260901213055 67 197 6.0 7.0 0.00 0.00 0.00 69 1013.8
20260901212549 67 176 7.0 10.0 0.00 0.00 0.00 69 1014.2
20260901212046 67 172 0.0 1.0 0.00 0.00 0.00 70 1014.2
20260901211546 67 161 3.0 5.0 0.00 0.00 0.00 70 1014.2
20260901211044 67 209 2.0 3.0 0.00 0.00 0.00 70 1014.2
20260901210544 67 196 5.0 8.0 0.00 0.00 0.00 69 1014.2
20260901210040 67 138 4.0 6.0 0.00 0.00 0.00 70 1013.8
20260901205535 67 213 4.0 6.0 0.00 0.00 0.00 70 1014.2
20260901205029 67 187 3.0 3.0 0.00 0.00 0.00 69 1013.8
20260901204526 67 195 2.0 2.0 0.00 0.00 0.00 68 1014.2
20260901204021 67 227 7.0 9.0 0.00 0.00 0.00 68 1014.2
20260901203521 68 204 3.0 5.0 0.00 0.00 0.00 68 1014.2
20260901203016 68 215 3.0 5.0 0.00 0.00 0.00 67 1014.2
20260901202511 68 219 9.0 11.0 0.00 0.00 0.00 66 1014.2
20260901202007 68 194 2.0 5.0 0.00 0.00 0.00 66 1014.2
20260901201502 68 147 8.0 9.0 0.00 0.00 0.00 66 1014.2
20260901201002 68 226 0.0 1.0 0.00 0.00 0.00 66 1014.2
20260901200456 68 198 0.0 0.0 0.00 0.00 0.00 68 1013.8
20260901195956 67 152 1.0 2.0 0.00 0.00 0.00 69 1014.2
20260901195454 66 132 0.0 0.0 0.00 0.00 0.00 72 1014.2
20260901194948 66 180 6.0 8.0 0.00 0.00 0.00 73 1014.2
20260901194444 66 180 0.0 1.0 0.00 0.00 0.00 74 1014.2
20260901193940 66 203 4.0 6.0 0.00 0.00 0.00 74 1014.2
20260901193439 66 200 1.0 2.0 0.00 0.00 0.00 74 1014.2
20260901192939 66 212 0.0 0.0 0.00 0.00 0.00 74 1014.5
20260901192435 66 186 1.0 3.0 0.00 0.00 0.00 74 1014.9
20260901191931 66 189 3.0 5.0 0.00 0.00 0.00 74 1014.5
20260901191426 66 153 4.0 5.0 0.00 0.00 0.00 75 1014.5
20260901190917 66 184 1.0 2.0 0.00 0.00 0.00 72 1014.9
20260901190417 66 180 3.0 5.0 0.00 0.00 0.00 73 1014.5
20260901185915 66 190 7.0 9.0 0.00 0.00 0.00 74 1014.5
20260901185414 66 201 3.0 5.0 0.00 0.00 0.00 74 1014.5
20260901184909 66 202 5.0 6.0 0.00 0.00 0.00 76 1014.9
20260901184404 66 145 1.0 2.0 0.00 0.00 0.00 76 1014.5
20260901183904 65 135 7.0 8.0 0.00 0.00 0.00 77 1014.9
20260901183404 64 193 3.0 3.0 0.00 0.00 0.00 79 1014.9
20260901182900 64 150 4.0 5.0 0.00 0.00 0.00 80 1014.9
20260901182355 64 167 5.0 6.0 0.00 0.00 0.00 80 1014.9
20260901181850 64 178 3.0 5.0 0.00 0.00 0.00 81 1014.9
20260901181345 63 160 1.0 3.0 0.00 0.00 0.00 81 1015.2
20260901180844 63 118 7.0 7.0 0.00 0.00 0.00 80 1014.9
20260901180343 64 203 5.0 7.0 0.00 0.00 0.00 80 1014.9
20260901175842 64 175 1.0 2.0 0.00 0.00 0.00 80 1014.9
20260901175337 64 184 6.0 7.0 0.00 0.00 0.00 79 1015.2
20260901174832 64 191 2.0 2.0 0.00 0.00 0.00 81 1015.2
20260901174328 63 188 2.0 3.0 0.00 0.00 0.00 81 1015.2
20260901173823 63 180 4.0 5.0 0.00 0.00 0.00 82 1014.9
20260901173318 62 192 2.0 2.0 0.00 0.00 0.00 83 1014.9
20260901172815 62 200 3.0 3.0 0.00 0.00 0.00 83 1014.9
20260901172314 62 186 3.0 5.0 0.00 0.00 0.00 83 1014.9
20260901171811 62 149 3.0 3.0 0.00 0.00 0.00 84 1014.9
20260901171311 62 127 5.0 8.0 0.00 0.00 0.00 84 1014.9
20260901170805 62 194 3.0 3.0 0.00 0.00 0.00 85 1014.9
20260901170304 62 195 3.0 5.0 0.00 0.00 0.00 85 1014.9
20260901165803 62 164 3.0 3.0 0.00 0.00 0.00 86 1014.9
20260901165258 61 181 2.0 2.0 0.00 0.00 0.00 88 1014.9
20260901164754 61 197 4.0 5.0 0.00 0.00 0.00 89 1014.9
20260901164250 60 203 2.0 2.0 0.00 0.00 0.00 90 1014.9
20260901163744 60 166 3.0 3.0 0.00 0.00 0.00 91 1014.9
20260901163239 60 211 3.0 3.0 0.00 0.00 0.00 93 1014.9
20260901162734 59 207 1.0 1.0 0.00 0.00 0.00 93 1015.2
20260901162233 59 130 3.0 3.0 0.00 0.00 0.00 94 1015.2
20260901161732 59 186 2.0 2.0 0.00 0.00 0.00 94 1015.2
20260901161227 59 168 2.0 2.0 0.00 0.00 0.00 94 1015.2
20260901160723 59 198 1.0 1.0 0.00 0.00 0.00 94 1015.2
20260901160219 59 152 2.0 2.0 0.00 0.00 0.00 94 1015.2
20260901155717 59 178 1.0 3.0 0.00 0.00 0.00 94 1015.2
20260901155213 59 199 2.0 3.0 0.00 0.00 0.00 93 1015.2
20260901154708 59 205 2.0 2.0 0.00 0.00 0.00 93 1015.2
20260901154203 59 173 3.0 3.0 0.00 0.00 0.00 92 1015.2
20260901153658 59 192 2.0 2.0 0.00 0.00 0.00 92 1014.9
20260901153157 60 179 1.0 2.0 0.00 0.00 0.00 91 1014.9
20260901152652 60 201 1.0 1.0 0.00 0.00 0.00 91 1015.2
20260901152150 60 190 2.0 2.0 0.00 0.00 0.00 90 1015.2
20260901151646 60 190 1.0 2.0 0.00 0.00 0.00 90 1014.9
20260901151146 60 180 3.0 3.0 0.00 0.00 0.00 89 1015.2
20260901150644 60 187 2.0 3.0 0.00 0.00 0.00 88 1014.9
20260901150138 60 197 2.0 2.0 0.00 0.00 0.00 87 1014.9
20260901145636 60 210 3.0 3.0 0.00 0.00 0.00 87 1015.2
20260901145135 60 193 4.0 5.0 0.00 0.00 0.00 86 1014.9
20260901144631 60 197 3.0 5.0 0.00 0.00 0.00 85 1014.9
20260901144126 60 191 2.0 2.0 0.00 0.00 0.00 85 1014.5
20260901143621 60 180 3.0 3.0 0.00 0.00 0.00 85 1014.5
20260901143118 60 206 3.0 3.0 0.00 0.00 0.00 85 1014.9
20260901142614 60 203 5.0 6.0 0.00 0.00 0.00 85 1014.9
20260901142113 60 199 1.0 2.0 0.00 0.00 0.00 84 1014.5
20260901141608 60 146 5.0 6.0 0.00 0.00 0.00 84 1014.5
20260901141103 61 172 3.0 3.0 0.00 0.00 0.00 84 1014.5
20260901140602 60 158 3.0 5.0 0.00 0.00 0.00 84 1014.2
20260901135601 60 181 3.0 3.0 0.00 0.00 0.00 84 1014.2
20260901135056 60 186 2.0 2.0 0.00 0.00 0.00 84 1014.2
20260901134552 60 161 3.0 3.0 0.00 0.00 0.00 84 1014.2
20260901134046 60 183 2.0 2.0 0.00 0.00 0.00 84 1014.2
20260901133540 60 120 3.0 5.0 0.00 0.00 0.00 84 1014.2
20260901133039 60 179 3.0 3.0 0.00 0.00 0.00 84 1014.2
20260901132538 60 193 2.0 2.0 0.00 0.00 0.00 84 1014.2
20260901132032 60 181 2.0 3.0 0.00 0.00 0.00 84 1014.2
20260901131526 60 179 2.0 2.0 0.00 0.00 0.00 85 1014.2
20260901131022 60 192 1.0 1.0 0.00 0.00 0.00 85 1014.5
20260901130516 60 172 2.0 3.0 0.00 0.00 0.00 85 1014.5
20260901130010 60 187 1.0 2.0 0.00 0.00 0.00 85 1014.2
20260901125508 60 180 1.0 2.0 0.00 0.00 0.00 85 1014.2
20260901125003 60 200 0.0 1.0 0.00 0.00 0.00 85 1014.2
20260901124458 60 182 1.0 2.0 0.00 0.00 0.00 85 1014.2
20260901123952 60 182 2.0 2.0 0.00 0.00 0.00 86 1014.5
20260901123447 60 202 0.0 1.0 0.00 0.00 0.00 86 1013.8
20260901122946 60 185 2.0 2.0 0.00 0.00 0.00 86 1014.2
20260901122444 60 192 1.0 1.0 0.00 0.00 0.00 86 1014.2
20260901121944 60 130 3.0 3.0 0.00 0.00 0.00 86 1014.2
20260901121439 59 125 3.0 3.0 0.00 0.00 0.00 86 1014.2
20260901120935 59 173 3.0 3.0 0.00 0.00 0.00 87 1014.2
20260901120429 59 196 3.0 3.0 0.00 0.00 0.00 87 1014.2
20260901115925 59 181 2.0 2.0 0.00 0.00 0.00 87 1014.2
20260901115425 59 185 2.0 2.0 0.00 0.00 0.00 87 1014.5
20260901114923 59 199 0.0 1.0 0.00 0.00 0.00 88 1014.2
20260901114418 59 204 0.0 0.0 0.00 0.00 0.00 88 1014.5
20260901113916 59 200 0.0 0.0 0.00 0.00 0.00 88 1014.2
20260901113415 59 193 1.0 1.0 0.00 0.00 0.00 88 1014.2
20260901112911 59 192 1.0 1.0 0.00 0.00 0.00 88 1014.2
20260901112405 59 200 1.0 1.0 0.00 0.00 0.00 88 1014.2
20260901111900 59 195 1.0 2.0 0.00 0.00 0.00 88 1014.2
20260901111358 58 199 0.0 0.0 0.00 0.00 0.00 89 1014.2
20260901110857 58 209 0.0 0.0 0.00 0.00 0.00 89 1014.5
20260901110353 58 215 0.0 0.0 0.00 0.00 0.00 89 1014.2
20260901105849 58 224 0.0 0.0 0.00 0.00 0.00 89 1014.2
20260901105344 58 224 0.0 1.0 0.00 0.00 0.00 89 1014.2
20260901104840 58 203 0.0 0.0 0.00 0.00 0.00 90 1014.2
20260901104335 58 208 0.0 0.0 0.00 0.00 0.00 90 1013.8
20260901103830 58 207 0.0 0.0 0.00 0.00 0.00 90 1014.2
20260901103324 58 207 0.0 0.0 0.00 0.00 0.00 90 1014.2
20260901102819 58 207 0.0 0.0 0.00 0.00 0.00 90 1014.2
20260901102314 57 212 0.0 0.0 0.00 0.00 0.00 90 1013.8
20260901101809 58 211 0.0 0.0 0.00 0.00 0.00 90 1014.2
20260901101304 58 204 0.0 0.0 0.00 0.00 0.00 90 1013.8
20260901100803 57 205 2.0 2.0 0.00 0.00 0.00 90 1013.8
20260901100257 57 208 0.0 0.0 0.00 0.00 0.00 90 1014.2
20260901095756 57 209 0.0 0.0 0.00 0.00 0.00 90 1014.2
20260901095253 57 210 0.0 0.0 0.00 0.00 0.00 90 1014.2
20260901094743 57 209 0.0 0.0 0.00 0.00 0.00 89 1014.2
20260901094237 58 209 0.0 0.0 0.00 0.00 0.00 89 1013.8
20260901093733 58 213 0.0 0.0 0.00 0.00 0.00 89 1014.2
20260901093231 58 184 1.0 1.0 0.00 0.00 0.00 89 1014.2
20260901092727 58 208 0.0 0.0 0.00 0.00 0.00 89 1014.2
20260901092223 58 211 0.0 0.0 0.00 0.00 0.00 89 1014.2
20260901091718 58 211 0.0 1.0 0.00 0.00 0.00 88 1014.2
20260901091214 58 200 0.0 1.0 0.00 0.00 0.00 88 1013.8
20260901090708 58 192 1.0 1.0 0.00 0.00 0.00 88 1014.2
20260901090204 58 204 0.0 0.0 0.00 0.00 0.00 88 1013.8
20260901085700 58 199 2.0 2.0 0.00 0.00 0.00 88 1013.8
20260901085155 58 210 1.0 1.0 0.00 0.00 0.00 88 1013.5
20260901084651 58 186 1.0 1.0 0.00 0.00 0.00 87 1013.8
20260901084147 59 200 1.0 1.0 0.00 0.00 0.00 87 1013.5
20260901083647 59 192 1.0 1.0 0.00 0.00 0.00 87 1013.5
20260901083146 59 193 2.0 2.0 0.00 0.00 0.00 86 1013.5
20260901082639 59 196 2.0 2.0 0.00 0.00 0.00 86 1013.8
20260901082135 59 197 0.0 1.0 0.00 0.00 0.00 86 1013.5
20260901081630 59 174 2.0 3.0 0.00 0.00 0.00 86 1013.5
20260901081125 59 203 0.0 1.0 0.00 0.00 0.00 85 1013.5
20260901080620 59 200 0.0 1.0 0.00 0.00 0.00 85 1013.8
20260901080118 59 185 5.0 6.0 0.00 0.00 0.00 85 1013.8
20260901075614 60 198 1.0 1.0 0.00 0.00 0.00 85 1013.2
20260901075114 60 188 3.0 3.0 0.00 0.00 0.00 85 1013.5
20260901074614 60 191 2.0 2.0 0.00 0.00 0.00 84 1013.8
20260901074113 60 200 2.0 2.0 0.00 0.00 0.00 84 1013.5
20260901073610 60 203 3.0 3.0 0.00 0.00 0.00 84 1013.5
20260901073105 60 198 3.0 3.0 0.00 0.00 0.00 84 1013.5
20260901072600 60 196 1.0 1.0 0.00 0.00 0.00 84 1013.5
20260901072055 60 196 1.0 1.0 0.00 0.00 0.00 84 1013.5
20260901071550 60 160 3.0 5.0 0.00 0.00 0.00 84 1013.5
20260901071049 60 203 1.0 1.0 0.00 0.00 0.00 84 1013.2
20260901070543 60 190 2.0 2.0 0.00 0.00 0.00 84 1013.2
20260901070039 60 169 2.0 2.0 0.00 0.00 0.00 84 1013.2
20260901065533 60 202 1.0 2.0 0.00 0.00 0.00 84 1013.5
20260901065028 60 217 4.0 5.0 0.00 0.00 0.00 84 1013.5
20260901064525 61 221 2.0 2.0 0.00 0.00 0.00 83 1013.2
20260901064021 61 206 2.0 2.0 0.00 0.00 0.00 83 1013.2
20260901063518 61 180 4.0 5.0 0.00 0.00 0.00 83 1013.2
20260901063014 61 193 1.0 2.0 0.00 0.00 0.00 83 1012.8
20260901062509 61 174 0.0 0.0 0.00 0.00 0.00 83 1013.2
20260901062005 61 199 0.0 0.0 0.00 0.00 0.00 83 1012.8
20260901061501 61 198 0.0 0.0 0.00 0.00 0.00 83 1013.2
20260901061000 61 209 0.0 0.0 0.00 0.00 0.00 82 1012.8
20260901060455 61 190 0.0 0.0 0.00 0.00 0.00 82 1013.2
20260901055955 61 204 0.0 0.0 0.00 0.00 0.00 82 1012.8
20260901055451 62 200 0.0 0.0 0.00 0.00 0.00 82 1012.8
20260901054943 62 213 0.0 0.0 0.00 0.00 0.00 81 1012.8
20260901054440 62 214 0.0 0.0 0.00 0.00 0.00 81 1012.8
20260901053935 62 218 0.0 0.0 0.00 0.00 0.00 81 1012.8
20260901053430 62 215 0.0 0.0 0.00 0.00 0.00 81 1012.5
20260901052920 62 201 0.0 0.0 0.00 0.00 0.00 81 1012.5
20260901052415 63 220 0.0 0.0 0.00 0.00 0.00 80 1012.5
20260901051913 63 195 3.0 5.0 0.00 0.00 0.00 79 1012.5
20260901051409 63 172 2.0 2.0 0.00 0.00 0.00 78 1012.5
20260901050903 63 208 2.0 2.0 0.00 0.00 0.00 77 1012.5
20260901050359 63 175 3.0 3.0 0.00 0.00 0.00 77 1012.5
20260901045854 64 188 2.0 2.0 0.00 0.00 0.00 75 1012.5
20260901045353 64 198 4.0 5.0 0.00 0.00 0.00 74 1012.5
20260901044849 64 214 2.0 3.0 0.00 0.00 0.00 73 1012.1
20260901044345 64 206 5.0 7.0 0.00 0.00 0.00 73 1012.1
20260901043841 65 185 1.0 5.0 0.00 0.00 0.00 72 1012.1
20260901043337 65 216 3.0 3.0 0.00 0.00 0.00 71 1012.1
20260901042836 66 219 3.0 5.0 0.00 0.00 0.00 70 1012.1
20260901042331 66 215 1.0 2.0 0.00 0.00 0.00 69 1011.8
20260901041821 67 177 4.0 5.0 0.00 0.00 0.00 68 1011.8
20260901041316 67 200 0.0 0.0 0.00 0.00 0.00 67 1011.8
20260901040810 67 212 4.0 5.0 0.00 0.00 0.00 66 1011.5
20260901040309 68 213 0.0 0.0 0.00 0.00 0.00 65 1011.5
20260901035808 68 206 0.0 0.0 0.00 0.00 0.00 65 1011.5
20260901035307 68 177 1.0 2.0 0.00 0.00 0.00 64 1011.5
20260901034806 69 179 3.0 3.0 0.00 0.00 0.00 64 1011.1